Weather History for Lawrenceville, IL

Change the Weather History Date:

Wednesday, August 14, 2013

  Actual Average Record
Temperature  
Mean Temperature 63 °F 77 °F  
Max Temperature 74 °F 88 °F 95 °F (2010)
Min Temperature 51 °F 66 °F 46 °F (2004)
Degree Days  
Heating Degree Days 2 0  
Month to date heating degree days 2 0  
Since 1 June heating degree days 6 7  
Since 1 July heating degree days 3 0  
Cooling Degree Days 0 12  
Month to date cooling degree days 121 168  
Year to date cooling degree days 854 995  
Since 1 June cooling degree days 686 856  
Growing Degree Days 12 (Base 50)    
Moisture  
Dew Point 49 °F    
Average Humidity 66    
Maximum Humidity 93    
Minimum Humidity 38    
Precipitation  
Precipitation 0.00 in 0.07 in 1.34 in (1977)
Month to date precipitation 0.79 1.45  
Year to date precipitation 40.72 27.41  
Sea Level Pressure  
Sea Level Pressure 30.16 in    
Wind  
Wind Speed 8 mph (NNE)    
Max Wind Speed 18 mph    
Max Gust Speed 25 mph    
Visibility 10 miles    
Events      
T = Trace of Precipitation, MM = Missing Value Source: NWS Daily Summary

Daily Weather History Graph

Daily Weather History Graph

Search for Another Location

Airport:

Trip Planner

Search our weather history database for the weather conditions in past years. The results will help you decide how hot, cold, wet, or windy it might be!

Date:

Astronomy

Aug. 14, 2013 Rise Set
Actual Time 6:03 AM CDT 7:45 PM CDT
Civil Twilight 5:35 AM CDT 8:14 PM CDT
Nautical Twilight 5:00 AM CDT 8:48 PM CDT
Astronomical Twilight 4:23 AM CDT 9:25 PM CDT
Moon 1:56 PM CDT (8/14) No Moon Set
Length of Visible Light 14h 39m
Length of Day
13h 42m
First Quarter, 53% of the Moon is Illuminated
Aug 14
First Quarter
Aug 20
Full
Aug 28
Last Quarter
Sep 5
New
Sep 12
First Quarter

Hourly Weather History & Observations

Time (CDT) Temp. Dew Point Humidity Pressure Visibility Wind Dir Wind Speed Gust Speed Precip Events Conditions
12:53 AM 57.9 °F 52.0 °F 81% 30.12 in 10.0 mi NNE 5.8 mph - N/A   Clear
1:53 AM 57.0 °F 51.1 °F 81% 30.12 in 10.0 mi North 6.9 mph - N/A   Clear
2:53 AM 55.0 °F 51.1 °F 86% 30.12 in 10.0 mi NE 3.5 mph - N/A   Clear
3:53 AM 53.1 °F 48.9 °F 86% 30.14 in 10.0 mi Calm Calm - N/A   Clear
4:53 AM 52.0 °F 48.9 °F 89% 30.14 in 10.0 mi Calm Calm - N/A   Clear
5:53 AM 51.1 °F 48.9 °F 92% 30.16 in 10.0 mi NNE 5.8 mph - N/A   Clear
6:53 AM 54.0 °F 51.1 °F 90% 30.19 in 10.0 mi NNE 4.6 mph - N/A   Clear
7:53 AM 57.9 °F 51.1 °F 78% 30.20 in 10.0 mi NNE 9.2 mph - N/A   Clear
8:53 AM 63.0 °F 51.1 °F 65% 30.20 in 10.0 mi NE 10.4 mph - N/A   Clear
9:53 AM 66.0 °F 48.9 °F 54% 30.20 in 10.0 mi NE 9.2 mph - N/A   Clear
10:53 AM 69.1 °F 46.0 °F 44% 30.20 in 10.0 mi NE 12.7 mph - N/A   Clear
11:53 AM 71.1 °F 46.9 °F 42% 30.19 in 10.0 mi NE 13.8 mph 24.2 mph N/A   Clear
12:53 PM 72.0 °F 46.0 °F 40% 30.19 in 10.0 mi NE 17.3 mph 21.9 mph N/A   Partly Cloudy
1:53 PM 73.0 °F 46.0 °F 38% 30.18 in 10.0 mi NE 11.5 mph 19.6 mph N/A   Mostly Cloudy
2:53 PM 73.0 °F 46.9 °F 39% 30.16 in 10.0 mi North 11.5 mph 21.9 mph N/A   Partly Cloudy
3:53 PM 73.9 °F 46.9 °F 38% 30.15 in 10.0 mi North 8.1 mph - N/A   Clear
4:53 PM 73.9 °F 46.9 °F 38% 30.15 in 10.0 mi NNE 10.4 mph - N/A   Partly Cloudy
5:53 PM 73.0 °F 48.0 °F 41% 30.14 in 10.0 mi NNE 9.2 mph - N/A   Scattered Clouds
6:53 PM 69.1 °F 48.9 °F 49% 30.14 in 10.0 mi North 9.2 mph - N/A   Clear
7:53 PM 64.0 °F 51.1 °F 63% 30.14 in 10.0 mi NNE 6.9 mph - N/A   Clear
8:53 PM 61.0 °F 51.1 °F 70% 30.14 in 10.0 mi NNE 8.1 mph - N/A   Clear
9:53 PM 59.0 °F 53.1 °F 81% 30.15 in 10.0 mi NE 5.8 mph - N/A   Clear
10:53 PM 57.0 °F 52.0 °F 83% 30.17 in 10.0 mi NNE 3.5 mph - N/A   Clear
11:53 PM 57.0 °F 52.0 °F 83% 30.17 in 10.0 mi NE 5.8 mph - N/A   Clear